When you browse on this site, cookies collect data to enhance your experience and personalize the content and advertising you see.
Visit our Privacy Policy to learn more. By continuing to use the site, you agree to this use of cookies and data.
  • En España
  • Lista de países
  • Para 7 días
  • Temperatura del agua
  • Mapa Satelital
  • El tiempo en el mapa
  • Informadores
  • user-avatar
    Iniciar sesión

    Tiempo cada hora Antananarivo

    Hoy, 22 Abril, Lunes

    Tiempo Temperatura Precipitaciones Viento Presión Humedad
    00:00 +19°C° 0 mm 1 mps 655 mmHg 97%
    01:00 +19°C° 0 mm 1 mps 655 mmHg 96%
    02:00 +19°C° 0 mm 1 mps 655 mmHg 95%
    03:00 +19°C° 0 mm 1 mps 654 mmHg 94%
    04:00 +18°C° 0 mm 1 mps 654 mmHg 95%
    05:00 +18°C° 0 mm 1 mps 654 mmHg 95%
    06:00 +18°C° 0 mm 1 mps 654 mmHg 96%
    07:00 +19°C° 0 mm 2 mps 655 mmHg 88%
    08:00 +21°C° 0 mm 2 mps 656 mmHg 80%
    09:00 +24°C° 0 mm 2 mps 656 mmHg 71%
    10:00 +26°C° 0 mm 2 mps 656 mmHg 65%
    11:00 +27°C° 0 mm 2 mps 657 mmHg 59%
    12:00 +28°C° 0 mm 2 mps 657 mmHg 53%
    13:00 +28°C° 0 mm 2 mps 656 mmHg 55%
    14:00 +28°C° 0 mm 2 mps 656 mmHg 58%
    15:00 +28°C° 0 mm 3 mps 656 mmHg 60%
    16:00 +26°C° 0.5 mm 2 mps 655 mmHg 70%
    17:00 +24°C° 0.5 mm 2 mps 655 mmHg 81%
    18:00 +21°C° 0.5 mm 2 mps 655 mmHg 91%
    19:00 +20°C° 0.3 mm 2 mps 655 mmHg 93%
    20:00 +20°C° 0.3 mm 2 mps 655 mmHg 94%
    21:00 +20°C° 0.3 mm 2 mps 656 mmHg 95%
    22:00 +19°C° 0 mm 2 mps 656 mmHg 96%
    23:00 +19°C° 0 mm 2 mps 655 mmHg 97%

    Mañana, 23 Abril, Martes

    Tiempo Temperatura Precipitaciones Viento Presión Humedad
    00:00 +19°C° 0 mm 2 mps 655 mmHg 97%
    01:00 +19°C° 0 mm 2 mps 655 mmHg 97%
    02:00 +18°C° 0 mm 2 mps 655 mmHg 97%
    03:00 +18°C° 0 mm 2 mps 655 mmHg 96%
    04:00 +18°C° 0 mm 2 mps 655 mmHg 96%
    05:00 +18°C° 0 mm 2 mps 655 mmHg 96%
    06:00 +17°C° 0 mm 2 mps 655 mmHg 96%
    07:00 +19°C° 0 mm 2 mps 656 mmHg 89%
    08:00 +20°C° 0 mm 3 mps 656 mmHg 82%
    09:00 +22°C° 0 mm 3 mps 657 mmHg 76%
    10:00 +25°C° 0 mm 3 mps 657 mmHg 71%
    11:00 +26°C° 0 mm 3 mps 657 mmHg 66%
    12:00 +27°C° 0 mm 4 mps 657 mmHg 61%
    13:00 +27°C° 0 mm 3 mps 657 mmHg 61%
    14:00 +27°C° 0 mm 3 mps 657 mmHg 62%
    15:00 +28°C° 0 mm 3 mps 656 mmHg 62%
    16:00 +26°C° 0 mm 3 mps 656 mmHg 71%
    17:00 +24°C° 0 mm 3 mps 656 mmHg 80%
    18:00 +21°C° 0 mm 3 mps 656 mmHg 88%
    19:00 +21°C° 0 mm 3 mps 656 mmHg 89%
    20:00 +20°C° 0 mm 3 mps 657 mmHg 90%
    21:00 +20°C° 0 mm 3 mps 657 mmHg 91%
    22:00 +20°C° 0 mm 3 mps 657 mmHg 90%
    23:00 +20°C° 0 mm 3 mps 657 mmHg 89%

    Pasado mañana, 24 Abril, Miércoles

    Tiempo Temperatura Precipitaciones Viento Presión Humedad
    00:00 +20°C° 0 mm 2 mps 657 mmHg 88%
    01:00 +19°C° 0 mm 2 mps 657 mmHg 90%
    02:00 +19°C° 0 mm 2 mps 656 mmHg 91%
    03:00 +18°C° 0 mm 2 mps 656 mmHg 93%
    04:00 +18°C° 0 mm 2 mps 656 mmHg 94%
    05:00 +18°C° 0 mm 2 mps 656 mmHg 94%
    06:00 +18°C° 0 mm 2 mps 656 mmHg 95%
    07:00 +19°C° 0 mm 3 mps 657 mmHg 89%
    08:00 +21°C° 0 mm 3 mps 657 mmHg 83%
    09:00 +22°C° 0 mm 4 mps 658 mmHg 77%
    10:00 +23°C° 0 mm 4 mps 658 mmHg 74%
    11:00 +25°C° 0 mm 4 mps 658 mmHg 70%
    12:00 +26°C° 0 mm 3 mps 658 mmHg 66%
    13:00 +26°C° 0 mm 3 mps 658 mmHg 66%
    14:00 +26°C° 0 mm 3 mps 657 mmHg 65%
    15:00 +26°C° 0 mm 3 mps 657 mmHg 65%
    16:00 +25°C° 0 mm 3 mps 657 mmHg 72%
    17:00 +22°C° 0 mm 3 mps 657 mmHg 80%
    18:00 +21°C° 0 mm 2 mps 657 mmHg 87%
    19:00 +20°C° 0 mm 3 mps 657 mmHg 89%
    20:00 +20°C° 0 mm 3 mps 658 mmHg 91%
    21:00 +20°C° 0 mm 3 mps 658 mmHg 93%
    22:00 +19°C° 0 mm 2 mps 658 mmHg 94%
    23:00 +19°C° 0 mm 2 mps 657 mmHg 95%

    25 Abril, Jueves

    Tiempo Temperatura Precipitaciones Viento Presión Humedad
    00:00 +18°C° 0 mm 2 mps 657 mmHg 97%
    01:00 +18°C° 0 mm 2 mps 657 mmHg 96%
    02:00 +18°C° 0 mm 2 mps 657 mmHg 94%
    03:00 +18°C° 0 mm 2 mps 656 mmHg 93%
    04:00 +18°C° 0 mm 2 mps 656 mmHg 92%
    05:00 +18°C° 0 mm 2 mps 657 mmHg 91%
    06:00 +18°C° 0 mm 2 mps 657 mmHg 90%
    07:00 +19°C° 0 mm 3 mps 657 mmHg 85%
    08:00 +21°C° 0 mm 3 mps 658 mmHg 80%
    09:00 +22°C° 0 mm 3 mps 659 mmHg 75%
    10:00 +24°C° 0 mm 3 mps 658 mmHg 71%
    11:00 +26°C° 0 mm 3 mps 658 mmHg 67%
    12:00 +27°C° 0 mm 4 mps 658 mmHg 63%
    13:00 +27°C° 0 mm 4 mps 657 mmHg 64%
    14:00 +26°C° 0 mm 4 mps 657 mmHg 65%
    15:00 +26°C° 0 mm 3 mps 656 mmHg 66%
    16:00 +25°C° 0.3 mm 3 mps 656 mmHg 74%
    17:00 +22°C° 0.3 mm 3 mps 656 mmHg 82%
    18:00 +20°C° 0.3 mm 2 mps 656 mmHg 90%
    19:00 +20°C° 0.2 mm 2 mps 657 mmHg 91%
    20:00 +20°C° 0.2 mm 2 mps 657 mmHg 93%
    21:00 +19°C° 0.2 mm 2 mps 657 mmHg 94%
    22:00 +19°C° 0 mm 2 mps 657 mmHg 94%
    23:00 +19°C° 0 mm 2 mps 657 mmHg 94%

    26 Abril, Viernes

    Tiempo Temperatura Precipitaciones Viento Presión Humedad
    00:00 +19°C° 0 mm 2 mps 657 mmHg 94%
    01:00 +18°C° 0 mm 2 mps 656 mmHg 95%
    02:00 +18°C° 0 mm 2 mps 656 mmHg 96%
    03:00 +18°C° 0 mm 1 mps 656 mmHg 96%
    04:00 +17°C° 0 mm 2 mps 656 mmHg 96%
    05:00 +17°C° 0 mm 2 mps 656 mmHg 97%
    06:00 +17°C° 0 mm 2 mps 656 mmHg 97%
    07:00 +18°C° 0 mm 2 mps 657 mmHg 92%
    08:00 +20°C° 0 mm 2 mps 657 mmHg 86%
    09:00 +21°C° 0 mm 3 mps 658 mmHg 81%
    10:00 +22°C° 0 mm 3 mps 658 mmHg 76%
    11:00 +25°C° 0 mm 3 mps 658 mmHg 70%
    12:00 +26°C° 0 mm 3 mps 658 mmHg 65%
    13:00 +26°C° 0 mm 3 mps 657 mmHg 64%
    14:00 +26°C° 0 mm 3 mps 657 mmHg 64%
    15:00 +26°C° 0 mm 3 mps 657 mmHg 63%
    16:00 +25°C° 0.2 mm 3 mps 657 mmHg 72%
    17:00 +22°C° 0.2 mm 3 mps 657 mmHg 80%
    18:00 +20°C° 0.2 mm 2 mps 656 mmHg 89%
    19:00 +20°C° 0.1 mm 2 mps 657 mmHg 90%
    20:00 +20°C° 0.1 mm 2 mps 657 mmHg 91%
    21:00 +19°C° 0.1 mm 2 mps 657 mmHg 92%
    22:00 +19°C° 0.1 mm 2 mps 657 mmHg 93%
    23:00 +19°C° 0.1 mm 2 mps 657 mmHg 94%

    27 Abril, Sábado

    Tiempo Temperatura Precipitaciones Viento Presión Humedad
    00:00 +19°C° 0.1 mm 2 mps 657 mmHg 95%
    01:00 +18°C° 0.1 mm 2 mps 656 mmHg 95%
    02:00 +18°C° 0.1 mm 2 mps 656 mmHg 95%
    03:00 +18°C° 0.1 mm 2 mps 656 mmHg 95%
    04:00 +18°C° 0 mm 2 mps 656 mmHg 96%
    05:00 +18°C° 0 mm 2 mps 656 mmHg 96%
    06:00 +17°C° 0 mm 2 mps 656 mmHg 97%
    07:00 +19°C° 0 mm 2 mps 657 mmHg 92%
    08:00 +20°C° 0 mm 2 mps 658 mmHg 87%
    09:00 +21°C° 0 mm 2 mps 658 mmHg 82%
    10:00 +23°C° 0 mm 2 mps 658 mmHg 76%
    11:00 +25°C° 0 mm 3 mps 658 mmHg 69%
    12:00 +26°C° 0 mm 3 mps 658 mmHg 63%
    13:00 +26°C° 0.1 mm 3 mps 657 mmHg 64%
    14:00 +26°C° 0.1 mm 3 mps 657 mmHg 65%
    15:00 +26°C° 0.1 mm 3 mps 657 mmHg 66%
    16:00 +24°C° 0.4 mm 2 mps 657 mmHg 74%
    17:00 +23°C° 0.4 mm 2 mps 657 mmHg 82%
    18:00 +20°C° 0.4 mm 2 mps 657 mmHg 90%
    19:00 +20°C° 0.3 mm 2 mps 657 mmHg 92%
    20:00 +19°C° 0.3 mm 2 mps 657 mmHg 93%
    21:00 +19°C° 0.3 mm 2 mps 657 mmHg 95%
    22:00 +20°C° 0 mm 1 mps 657 mmHg 96%
    23:00 +20°C° 0 mm 1 mps 657 mmHg 96%
    Mostrar más